Regional Weather Roundup
Issued by NWS

Home | Current Version | Previous Version | Graphics & Text | Print | Product List | Glossary On
Versions: 1 2 3 4 5 6 7 8 9 10 11 12 13 14 15 16 17 18 19 20 21 22 23 24 25 26 27 28 29 30 31 32 33 34 35 36 37 38 39 40 41 42
000
ASUS43 KDMX 271007
RWRIA

WEATHER ROUNDUP FOR IOWA
NATIONAL WEATHER SERVICE DES MOINES IA
400 AM CST SAT DEC 27 2014

NOTE: "FAIR" INDICATES FEW OR NO CLOUDS BELOW 12,000 FEET WITH NO
SIGNIFICANT WEATHER AND/OR OBSTRUCTIONS TO VISIBILITY.

* - THESE STATIONS ARE NOT NWS STATIONS...THUS NOT UNDER NWS
QUALITY CONTROL.  THEY ALSO DO NOT REPORT WEATHER SUCH
AS PRECIPITATION OR FOG.

IAZ001>003-012>014-020>022-031>034-043>046-271100-
   NORTHWEST IOWA

CITY           SKY/WX    TMP DP  RH WIND       PRES   REMARKS
CARROLL *      FLURRIES  27  25  93 NW15G21   30.03R WCI  15
CHEROKEE *     LGT SNOW  25  23  93 NW12G17   30.06S WCI  14
DENISON *      FLURRIES  25  25 100 NW13G20   30.05R WCI  13
LE MARS *      LGT SNOW  23  21  93 NW13      30.11S WCI  11
ORANGE CITY *  LGT SNOW  23  19  86 NW14      30.08S WCI  11
SHELDON *      LGT SNOW  21  21 100 NW16      30.07R WCI   7
SIOUX CITY     LGT SNOW  24  20  84 NW22G29   30.11S FOG     WCI   9
SPENCER        LGT SNOW  24  20  84 NW18      30.03S FOG     WCI  10
STORM LAKE *   FLURRIES  23  21  93 NW17      30.04R WCI   9
$$

IAZ055>058-069>071-079>083-090>094-271100-
   SOUTHWEST IOWA

CITY           SKY/WX    TMP DP  RH WIND       PRES   REMARKS
ATLANTIC *     CLOUDY    28  27  93 NW16      30.06R WCI  17
AUDUBON *      CLEAR     27  21  80 NW9G17    30.05R WCI  17
CLARINDA *     CLOUDY    32  30  93 NW12G20   30.09R WCI  23
COUNCIL BLFS * MIX PCPN  27  27 100 NW15      30.08R WCI  15
CRESTON *      CLOUDY    32  32 100 NW16G22   30.02R WCI  21
HARLAN  *      CLOUDY    27  27 100 NW18      30.10R WCI  13
LAMONI         CLOUDY    33  32  96 W13       30.02R WCI  24
RED OAK *      CLOUDY    28  27  93 NW13G18   30.08R WCI  18
SHENANDOAH *   CLOUDY    30  28  93 NW10G17   30.11R WCI  21
$$

IAZ047>049-059>061-072>074-084-271100-
   CENTRAL IOWA

CITY           SKY/WX    TMP DP  RH WIND       PRES   REMARKS
AMES           CLOUDY    32  29  88 NW14      29.97S WCI  22
ANKENY *       CLOUDY    32  32 100 W15G22    29.97F WCI  22
CHARITON *     CLOUDY    34  34 100 W16       29.99R WCI  23
DES MOINES     CLOUDY    33  30  88 NW16      30.00R FOG     WCI  23
GRINNELL*      CLOUDY    32  32 100 W13G18    29.94F FOG     WCI  22
KNOXVILLE *    CLOUDY    34  32  93 W15       29.96S FOG     WCI  24
MARSHALLTOWN   CLOUDY    33  32  96 W13       29.93R FOG     WCI  24
PELLA *        CLOUDY    33  33  99 W12       29.98S WCI  25
PERRY *        CLOUDY    30  30 100 NW12      30.01R WCI  21
$$

IAZ004>006-015-016-023>025-035-036-271100-
   NORTH CENTRAL IOWA

CITY           SKY/WX    TMP DP  RH WIND       PRES   REMARKS
ALGONA *       LGT SNOW  27  25  93 N14G24    30.00R WCI  15
CLARION *      LGT SNOW  28  28 100 NW21      29.97R WCI  15
ESTHERVILLE    LGT SNOW  23  21  92 NW18      30.01S FOG     WCI   9
FORT DODGE *   CLOUDY    27  23  86 N10       29.99S WCI  17
MASON CITY     LGT SNOW  28  26  92 NW16      29.95R FOG     WCI  16
FOREST CITY *  LGT SNOW  28  27  93 NW15      29.95R WCI  17
IOWA FALLS *   CLOUDY    32  30  93 W14       29.94S WCI  22
$$

IAZ007>011-017>019-026>030-037>042-050>054-066-271100-
   NORTHEAST IOWA

CITY           SKY/WX    TMP DP  RH WIND       PRES   REMARKS
CEDAR RAPIDS   LGT RAIN  38  37  97 W14       29.91R FOG     WCI  30
CHARLES CITY * LGT SNOW  32  32 100 W7        29.90R WCI  26
CLINTON *      CLOUDY    48  45  87 S14       29.91F
DECORAH *      LGT RAIN  32  32 100 CALM      29.85F
DUBUQUE        CLOUDY    40  39  97 S6        29.86S
MONTICELLO *   CLOUDY    37  37 100 SE5       29.86F WCI  34
OELWEIN *      LGT RAIN  36  36 100 S8        29.89R WCI  29
WATERLOO       LGT RAIN  34  34 100 SW8       29.90S FOG     WCI  27
$$

IAZ064-065-067-068-078-271100-
   EAST CENTRAL IOWA

CITY           SKY/WX    TMP DP  RH WIND       PRES   REMARKS
DAVENPORT      CLOUDY    48  45  89 S12       29.90F
IOWA CITY      MOCLDY    40  39  97 W6        29.92F
MT. PLEASANT * CLOUDY    43  43 100 SW7       29.93R FOG
MUSCATINE *    CLOUDY    46  45  93 S9        29.91F FOG
QUAD CITIES    CLOUDY    49  46  90 S12       29.91F FOG
$$

IAZ062-063-075>077-085>089-095>099-271100-
   SOUTHEAST IOWA

CITY           SKY/WX    TMP DP  RH WIND       PRES   REMARKS
BURLINGTON     CLOUDY    51  48  89 S15       29.92F
FAIRFIELD *    DRIZZLE   37  36  93 W14G20    29.96R WCI  29
FORT MADISON * CLOUDY    52  48  87 S10       29.94S
KEOKUK *       CLOUDY    50  48  93 S12G20    29.93S
OSKALOOSA *    HVY RAIN  36  34  93 W13       29.96S WCI  27
CENTERVILLE *  CLOUDY    36  36 100 W21       30.00R WCI  24
OTTUMWA        LGT RAIN  36  35  96 W9        29.95R FOG     WCI  29
WASHINGTON *   CLOUDY    41  41 100 W16       29.94R
$$

ABBREVIATIONS USED IN REMARKS
   TC - TEMPERATURES IN CELSIUS
  WCI - WIND CHILL INDEX
   HX - HEAT INDEX
  VSB - VISIBILITY
$$




USA.gov is the U.S. government's official web portal to all federal, state and local government web resources and services.